Weather History for Frankfort, KY

Change the Weather History Date:

Sunday, December 9, 2012

  Actual Average Record
Temperature  
Mean Temperature 56 °F 37 °F  
Max Temperature 62 °F 46 °F 70 °F (1946)
Min Temperature 50 °F 28 °F -6 °F (1917)
Degree Days  
Heating Degree Days 9 28  
Month to date heating degree days 104 240  
Since 1 July heating degree days 1191 1151  
Cooling Degree Days 0 0  
Month to date cooling degree days 0 0  
Year to date cooling degree days 1310 1155  
Growing Degree Days 6 (Base 50)    
Moisture  
Dew Point 54 °F    
Average Humidity 90    
Maximum Humidity 96    
Minimum Humidity 84    
Precipitation  
Precipitation 0.64 in 0.15 in 1.78 in (1972)
Month to date precipitation 2.86 1.30  
Year to date precipitation 37.45 42.91  
Sea Level Pressure  
Sea Level Pressure 29.88 in    
Wind  
Wind Speed 7 mph (SE)    
Max Wind Speed 15 mph    
Max Gust Speed 20 mph    
Visibility 6 miles    
Events Rain , Thunderstorm    
T = Trace of Precipitation, MM = Missing Value Source: NWS Daily Summary

Daily Weather History Graph

Daily Weather History Graph

Search for Another Location

Airport:

Trip Planner

Search our weather history database for the weather conditions in past years. The results will help you decide how hot, cold, wet, or windy it might be!

Date:

Astronomy

Dec. 09, 2012 Rise Set
Actual Time 7:44 AM EST 5:19 PM EST
Civil Twilight 7:15 AM EST 5:48 PM EST
Nautical Twilight 6:42 AM EST 6:21 PM EST
Astronomical Twilight 6:10 AM EST 6:54 PM EST
Moon 3:19 AM EST (12/9) 2:23 PM EST (12/9)
Length of Visible Light 10h 33m
Length of Day
9h 34m
Waning Crescent, 19% of the Moon is Illuminated
Dec 9
Waning Crescent
Dec 13
New
Dec 20
First Quarter
Dec 28
Full
Jan 4
Last Quarter

Hourly Weather History & Observations

Time (EST) Temp. Dew Point Humidity Pressure Visibility Wind Dir Wind Speed Gust Speed Precip Events Conditions
12:18 AM 50.0 °F 48.2 °F 94% 29.99 in 5.0 mi East 5.8 mph - 0.01 in Rain Light Rain
12:29 AM 50.0 °F 48.2 °F 94% 29.98 in 4.0 mi East 6.9 mph - 0.01 in   Overcast
12:53 AM 50.0 °F 48.9 °F 96% 29.99 in 5.0 mi ENE 4.6 mph - 0.01 in   Overcast
1:21 AM 50.0 °F 48.2 °F 94% 30.00 in 2.0 mi NNE 3.5 mph - 0.04 in Rain Rain
1:33 AM 50.0 °F 48.2 °F 94% 29.99 in 3.0 mi East 4.6 mph - 0.04 in Rain Light Rain
1:49 AM 50.0 °F 48.2 °F 94% 29.98 in 4.0 mi NE 4.6 mph - 0.04 in   Overcast
1:53 AM 50.0 °F 48.9 °F 96% 29.98 in 4.0 mi ENE 5.8 mph - 0.04 in   Overcast
2:04 AM 50.0 °F 48.2 °F 94% 29.99 in 4.0 mi East 3.5 mph - N/A   Overcast
2:53 AM 50.0 °F 48.9 °F 96% 29.99 in 4.0 mi NE 4.6 mph - N/A   Overcast
3:38 AM 50.0 °F 48.2 °F 94% 29.97 in 4.0 mi ENE 6.9 mph - N/A   Overcast
3:53 AM 50.0 °F 48.9 °F 96% 29.97 in 4.0 mi NE 4.6 mph - N/A   Overcast
4:53 AM 50.0 °F 48.9 °F 96% 29.97 in 4.0 mi East 4.6 mph - N/A   Overcast
5:53 AM 51.1 °F 48.9 °F 92% 29.97 in 4.0 mi ENE 5.8 mph - N/A   Overcast
6:53 AM 51.1 °F 50.0 °F 96% 29.96 in 4.0 mi ENE 4.6 mph - N/A   Overcast
7:53 AM 52.0 °F 50.0 °F 93% 29.95 in 4.0 mi NE 3.5 mph - N/A   Overcast
8:29 AM 51.8 °F 51.8 °F 100% 29.94 in 2.5 mi East 4.6 mph - N/A   Overcast
8:53 AM 52.0 °F 51.1 °F 97% 29.95 in 2.5 mi SE 3.5 mph - 0.05 in Rain , Thunderstorm Rain
9:01 AM 51.8 °F 51.8 °F 100% 29.95 in 1.2 mi Calm Calm - 0.11 in Rain , Thunderstorm Heavy Rain
9:13 AM 51.8 °F 51.8 °F 100% 29.94 in 1.8 mi ENE 3.5 mph - 0.14 in Rain , Thunderstorm Rain
9:17 AM 51.8 °F 51.8 °F 100% 29.94 in 1.5 mi East 5.8 mph - 0.15 in Rain Rain
9:27 AM 53.6 °F 51.8 °F 94% 29.94 in 1.8 mi ESE 4.6 mph - 0.17 in Rain Rain
9:48 AM 53.6 °F 53.6 °F 100% 29.94 in 2.0 mi Calm Calm - 0.21 in Rain Light Rain
9:53 AM 54.0 °F 53.1 °F 97% 29.94 in 2.0 mi ESE 4.6 mph - 0.21 in Rain Light Rain
10:20 AM 55.4 °F 53.6 °F 94% 29.94 in 3.0 mi SE 4.6 mph - 0.01 in   Mostly Cloudy
10:33 AM 55.4 °F 55.4 °F 100% 29.94 in 4.0 mi SE 3.5 mph - 0.01 in   Mostly Cloudy
10:53 AM 55.9 °F 55.0 °F 97% 29.93 in 4.0 mi SE 5.8 mph - 0.01 in   Overcast
11:16 AM 57.2 °F 55.4 °F 94% 29.92 in 7.0 mi SSE 6.9 mph - N/A   Overcast
11:53 AM 59.0 °F 57.0 °F 93% 29.90 in 10.0 mi South 6.9 mph - N/A   Overcast
12:23 PM 60.8 °F 57.2 °F 88% 29.88 in 10.0 mi South 9.2 mph - N/A   Overcast
12:30 PM 60.8 °F 57.2 °F 88% 29.87 in 10.0 mi South 8.1 mph - N/A   Overcast
12:36 PM 60.8 °F 57.2 °F 88% 29.87 in 10.0 mi South 9.2 mph - N/A   Overcast
12:53 PM 62.1 °F 57.9 °F 86% 29.85 in 10.0 mi South 10.4 mph - N/A   Overcast
1:37 PM 60.8 °F 57.2 °F 88% 29.84 in 10.0 mi SSW 10.4 mph - N/A   Overcast
1:53 PM 61.0 °F 57.9 °F 90% 29.84 in 10.0 mi South 10.4 mph - N/A   Overcast
2:53 PM 62.1 °F 57.9 °F 86% 29.83 in 10.0 mi South 9.2 mph - 0.00 in   Mostly Cloudy
3:14 PM 60.8 °F 57.2 °F 88% 29.84 in 10.0 mi South 10.4 mph - N/A   Mostly Cloudy
3:53 PM 61.0 °F 57.0 °F 87% 29.83 in 10.0 mi South 9.2 mph - N/A   Mostly Cloudy
4:09 PM 60.8 °F 57.2 °F 88% 29.84 in 10.0 mi South 9.2 mph - N/A   Mostly Cloudy
4:51 PM 60.8 °F 57.2 °F 88% 29.83 in 10.0 mi South 8.1 mph - N/A   Overcast
4:53 PM 61.0 °F 57.9 °F 90% 29.83 in 10.0 mi South 9.2 mph - N/A   Overcast
5:53 PM 60.1 °F 57.0 °F 90% 29.82 in 10.0 mi South 8.1 mph - N/A   Scattered Clouds
6:10 PM 60.8 °F 57.2 °F 88% 29.82 in 10.0 mi South 9.2 mph - N/A   Mostly Cloudy
6:33 PM 60.8 °F 57.2 °F 88% 29.81 in 10.0 mi South 10.4 mph - N/A   Mostly Cloudy
6:53 PM 60.1 °F 57.9 °F 93% 29.80 in 10.0 mi South 9.2 mph - N/A   Mostly Cloudy
7:07 PM 60.8 °F 57.2 °F 88% 29.80 in 10.0 mi South 8.1 mph - N/A   Overcast
7:31 PM 60.8 °F 57.2 °F 88% 29.79 in 10.0 mi South 9.2 mph - N/A   Overcast
7:53 PM 61.0 °F 57.9 °F 90% 29.78 in 9.0 mi South 9.2 mph - 0.00 in Rain Light Rain
8:08 PM 60.8 °F 57.2 °F 88% 29.77 in 10.0 mi South 8.1 mph - 0.00 in   Mostly Cloudy
8:15 PM 60.8 °F 57.2 °F 88% 29.78 in 10.0 mi South 9.2 mph - 0.00 in   Mostly Cloudy
8:53 PM 60.1 °F 57.9 °F 93% 29.75 in 10.0 mi South 9.2 mph - 0.08 in Rain Light Rain
9:53 PM 61.0 °F 57.9 °F 90% 29.73 in 10.0 mi South 10.4 mph - 0.01 in Rain Light Rain
10:53 PM 61.0 °F 57.0 °F 87% 29.72 in 10.0 mi South 11.5 mph - 0.01 in Rain Light Rain
11:27 PM 59.0 °F 57.2 °F 94% 29.77 in 1.8 mi West 10.4 mph 16.1 mph 0.12 in Rain Heavy Rain
11:37 PM 57.2 °F 55.4 °F 94% 29.76 in 3.0 mi SW 13.8 mph 18.4 mph 0.16 in Rain Rain
11:53 PM 57.0 °F 55.0 °F 93% 29.75 in 5.0 mi SW 12.7 mph - 0.20 in Rain Rain